Flag for Germany Weather past 2 weeks in Korschenbroich, North Rhine-Westphalia, Germany

Now
50 °F

Drizzle. Fog.


Feels Like: 47 °F
Forecast: 49 / 56 °F
Wind: 8 mph from Southwest

Location: Duesseldorf

Current Time: Dec 18, 2014 at 12:37:36 AM

Latest Report: Dec 18, 2014 at 12:20 AM


Visibility: 2 mi

Pressure: 29.83 "Hg

Humidity: 100%

Dew point: 50 °F

Location of KorschenbroichLocation

Historic Weather in Korschenbroich — Graph

°F

Korschenbroich temperature yesterday

Maximum temperature yesterday: 50 °F (at 7:20 PM)
Minimum temperature yesterday: 36 °F (at 12:50 AM)
Average temperature yesterday: 44 °F

Past Weeks' High & Low Weather Summary

 TemperatureHumidityPressure
High50 °F (Dec 12, 12:20 PM)100% (Dec 3, 7:50 AM)30.36 "Hg (Dec 3, 7:50 AM)
Low30 °F (Dec 3, 7:20 AM)61% (Dec 7, 1:50 PM)29.42 "Hg (Dec 12, 12:50 PM)
Average40 °F86%29.98 "Hg
* Reported Dec 2 11:20 PM — Dec 17 11:20 PM, Korschenbroich, Weather by CustomWeather, © 2014

Note: Actual official high and low records may vary slightly from our data, if they occured in-between our weather recording intervals... More about our weather records

Advertising

Korschenbroich weather history for previous 24 hours

 ConditionsComfort  
Time TempWeatherWind HumidityBarometerVisibility
11:20 PM
Dec 17
50 °FFog.9 mph100%29.80 "Hg2 mi
10:50 PM50 °FFog.8 mph100%29.80 "Hg2 mi
10:20 PM50 °FDrizzle. Fog.7 mph100%29.80 "Hg2 mi
9:50 PM50 °FDrizzle. Fog.8 mph100%29.80 "Hg3 mi
9:20 PM50 °FDrizzle. Fog.8 mph100%29.77 "Hg2 mi
8:50 PM50 °FDrizzle. Fog.9 mph100%29.77 "Hg2 mi
8:20 PM50 °FDrizzle. Fog.9 mph100%29.77 "Hg2 mi
7:50 PM50 °FFog.8 mph100%29.74 "Hg3 mi
7:20 PM50 °FFog.9 mph100%29.74 "Hg2 mi
6:50 PM48 °FDrizzle. Fog.10 mph100%29.71 "Hg2 mi
6:20 PM48 °FDrizzle. Fog.9 mph100%29.71 "Hg2 mi
5:50 PM48 °FDrizzle. Fog.10 mph100%29.71 "Hg2 mi
5:20 PM48 °FDrizzle. Mostly cloudy.10 mph100%29.68 "Hg3 mi
4:50 PM48 °FDrizzle. Mostly cloudy.10 mph100%29.68 "Hg3 mi
4:20 PM46 °FDrizzle. Fog.9 mph100%29.65 "Hg2 mi
3:50 PM46 °FDrizzle. Fog.9 mph100%29.65 "Hg2 mi
3:20 PM46 °FDrizzle. Fog.9 mph100%29.65 "Hg2 mi
2:50 PM46 °FDrizzle. Fog.12 mph100%29.62 "Hg2 mi
2:20 PM45 °FDrizzle. Fog.12 mph100%29.62 "Hg2 mi
1:50 PM45 °FBroken clouds.14 mph93%29.59 "Hg4 mi
1:20 PM45 °FDrizzle. Partly sunny.13 mph100%29.62 "Hg4 mi
12:50 PM43 °FDrizzle. Mostly cloudy.8 mph100%29.62 "Hg4 mi
12:20 PM43 °FDrizzle. Partly sunny.10 mph93%29.62 "Hg4 mi
11:50 AM41 °FDrizzle. Fog.14 mph100%29.62 "Hg4 mi
11:20 AM41 °FDrizzle. Fog.16 mph93%29.62 "Hg2 mi
10:50 AM41 °FDrizzle. Fog.16 mph93%29.65 "Hg2 mi
10:20 AM41 °FDrizzle. Broken clouds.17 mph93%29.65 "Hg3 mi
9:50 AM41 °FDrizzle. Partly sunny.18 mph93%29.65 "Hg4 mi
9:20 AM41 °FLight rain. Partly sunny.16 mph93%29.68 "Hg4 mi
8:50 AM41 °FLight rain. Partly sunny.15 mph87%29.71 "Hg4 mi
8:20 AM41 °FLight rain. Passing clouds.14 mph87%29.71 "Hg4 mi
7:50 AM41 °FLight rain. Passing clouds.16 mph81%29.74 "HgN/A
7:20 AM41 °FLight rain. Passing clouds.15 mph81%29.74 "HgN/A
6:50 AM41 °FLight rain. Passing clouds.17 mph81%29.77 "HgN/A
6:20 AM41 °FPassing clouds.15 mph81%29.80 "HgN/A
5:50 AM41 °FClear.12 mph81%29.83 "Hg10 mi
5:20 AM41 °FClear.13 mph81%29.83 "Hg10 mi
4:50 AM41 °FClear.12 mph81%29.83 "Hg10 mi
4:20 AM39 °FClear.13 mph93%29.86 "Hg10 mi
3:50 AM39 °FClear.10 mph93%29.89 "Hg10 mi
3:20 AM39 °FClear.10 mph93%29.89 "Hg10 mi
2:50 AM39 °FClear.10 mph93%29.89 "Hg10 mi
2:20 AM39 °FClear.12 mph93%29.92 "Hg10 mi
1:50 AM37 °FClear.10 mph93%29.92 "Hg10 mi
1:20 AM37 °FClear.10 mph93%29.92 "Hg10 mi
12:50 AM36 °FPassing clouds.9 mph100%29.95 "HgN/A
12:20 AM37 °FPassing clouds.7 mph93%29.95 "HgN/A
Weather by CustomWeather, © 2014

See weather overviewHow to use our weather pages